Year,Month,Day,Hour,Minute,Value (Times are PST for temperature in C)
2010,07,14,00,00,13.50
2010,07,14,00,01,13.50
2010,07,14,00,02,13.50
2010,07,14,00,03,13.50
2010,07,14,00,04,13.40
2010,07,14,00,05,13.40
2010,07,14,00,06,13.40
2010,07,14,00,07,13.40
2010,07,14,00,08,13.40
2010,07,14,00,09,13.30
2010,07,14,00,10,13.30
2010,07,14,00,11,13.30
2010,07,14,00,12,13.30
2010,07,14,00,13,13.30
2010,07,14,00,14,13.30
2010,07,14,00,15,13.30
2010,07,14,00,16,13.30
2010,07,14,00,17,13.30
2010,07,14,00,18,13.30
2010,07,14,00,19,13.20
2010,07,14,00,20,13.20
2010,07,14,00,21,13.20
2010,07,14,00,22,13.20
2010,07,14,00,23,13.20
2010,07,14,00,24,13.10
2010,07,14,00,25,13.10
2010,07,14,00,26,13.00
2010,07,14,00,27,13.00
2010,07,14,00,28,12.90
2010,07,14,00,29,13.00
2010,07,14,00,30,13.00
2010,07,14,00,31,13.00
2010,07,14,00,32,12.90
2010,07,14,00,33,12.90
2010,07,14,00,34,12.90
2010,07,14,00,35,12.90
2010,07,14,00,36,12.90
2010,07,14,00,37,12.90
2010,07,14,00,38,12.80
2010,07,14,00,39,12.80
2010,07,14,00,40,12.80
2010,07,14,00,41,12.80
2010,07,14,00,42,12.80
2010,07,14,00,43,12.70
2010,07,14,00,44,12.70
2010,07,14,00,45,12.60
2010,07,14,00,46,12.50
2010,07,14,00,47,12.40
2010,07,14,00,48,12.40
2010,07,14,00,49,12.30
2010,07,14,00,50,12.30
2010,07,14,00,51,12.30
2010,07,14,00,52,12.30
2010,07,14,00,53,12.20
2010,07,14,00,54,12.20
2010,07,14,00,55,12.20
2010,07,14,00,56,12.20
2010,07,14,00,57,12.20
2010,07,14,00,58,12.10
2010,07,14,00,59,12.10
2010,07,14,01,00,12.10
2010,07,14,01,01,12.00
2010,07,14,01,02,12.00
2010,07,14,01,03,11.90
2010,07,14,01,04,11.90
2010,07,14,01,05,11.90
2010,07,14,01,06,11.80
2010,07,14,01,07,11.80
2010,07,14,01,08,11.80
2010,07,14,01,09,11.80
2010,07,14,01,10,11.80
2010,07,14,01,11,11.80
2010,07,14,01,12,11.70
2010,07,14,01,13,11.70
2010,07,14,01,14,11.70
2010,07,14,01,15,11.70
2010,07,14,01,16,11.60
2010,07,14,01,17,11.60
2010,07,14,01,18,11.60
2010,07,14,01,19,11.60
2010,07,14,01,20,11.50
2010,07,14,01,21,11.50
2010,07,14,01,22,11.50
2010,07,14,01,23,11.50
2010,07,14,01,24,11.50
2010,07,14,01,25,11.50
2010,07,14,01,26,11.50
2010,07,14,01,27,11.40
2010,07,14,01,28,11.40
2010,07,14,01,29,11.40
2010,07,14,01,30,11.30
2010,07,14,01,31,11.30
2010,07,14,01,32,11.30
2010,07,14,01,33,11.30
2010,07,14,01,34,11.30
2010,07,14,01,35,11.40
2010,07,14,01,36,11.40
2010,07,14,01,37,11.40
2010,07,14,01,38,11.40
2010,07,14,01,39,11.40
2010,07,14,01,40,11.40
2010,07,14,01,41,11.40
2010,07,14,01,42,11.40
2010,07,14,01,43,11.40
2010,07,14,01,44,11.30
2010,07,14,01,45,11.30
2010,07,14,01,46,11.30
2010,07,14,01,47,11.30
2010,07,14,01,48,11.30
2010,07,14,01,49,11.30
2010,07,14,01,50,11.30
2010,07,14,01,51,11.20
2010,07,14,01,52,11.20
2010,07,14,01,53,11.20
2010,07,14,01,54,11.20
2010,07,14,01,55,11.20
2010,07,14,01,56,11.20
2010,07,14,01,57,11.10
2010,07,14,01,58,11.10
2010,07,14,01,59,11.10
2010,07,14,02,00,11.10
2010,07,14,02,01,11.10
2010,07,14,02,02,11.10
2010,07,14,02,03,11.10
2010,07,14,02,04,11.00
2010,07,14,02,05,11.00
2010,07,14,02,06,11.00
2010,07,14,02,07,10.90
2010,07,14,02,08,10.90
2010,07,14,02,09,10.90
2010,07,14,02,10,10.90
2010,07,14,02,11,10.90
2010,07,14,02,12,10.80
2010,07,14,02,13,10.80
2010,07,14,02,14,10.80
2010,07,14,02,15,10.80
2010,07,14,02,16,10.80
2010,07,14,02,17,10.80
2010,07,14,02,18,10.80
2010,07,14,02,19,10.80
2010,07,14,02,20,10.80
2010,07,14,02,21,10.80
2010,07,14,02,22,10.80
2010,07,14,02,23,10.80
2010,07,14,02,24,10.80
2010,07,14,02,25,10.80
2010,07,14,02,26,10.70
2010,07,14,02,27,10.70
2010,07,14,02,28,10.70
2010,07,14,02,29,10.60
2010,07,14,02,30,10.60
2010,07,14,02,31,10.60
2010,07,14,02,32,10.60
2010,07,14,02,33,10.50
2010,07,14,02,34,10.50
2010,07,14,02,35,10.50
2010,07,14,02,36,10.50
2010,07,14,02,37,10.40
2010,07,14,02,38,10.40
2010,07,14,02,39,10.40
2010,07,14,02,40,10.40
2010,07,14,02,41,10.40
2010,07,14,02,42,10.40
2010,07,14,02,43,10.40
2010,07,14,02,44,10.40
2010,07,14,02,45,10.40
2010,07,14,02,46,10.40
2010,07,14,02,47,10.40
2010,07,14,02,48,10.40
2010,07,14,02,49,10.40
2010,07,14,02,50,10.30
2010,07,14,02,51,10.30
2010,07,14,02,52,10.30
2010,07,14,02,53,10.30
2010,07,14,02,54,10.30
2010,07,14,02,55,10.30
2010,07,14,02,56,10.30
2010,07,14,02,57,10.30
2010,07,14,02,58,10.30
2010,07,14,02,59,10.30
2010,07,14,03,00,10.30
2010,07,14,03,01,10.30
2010,07,14,03,02,10.30
2010,07,14,03,03,10.30
2010,07,14,03,04,10.30
2010,07,14,03,05,10.30
2010,07,14,03,06,10.30
2010,07,14,03,07,10.30
2010,07,14,03,08,10.30
2010,07,14,03,09,10.30
2010,07,14,03,10,10.30
2010,07,14,03,11,10.30
2010,07,14,03,12,10.30
2010,07,14,03,13,10.20
2010,07,14,03,14,10.20
2010,07,14,03,15,10.20
2010,07,14,03,16,10.20
2010,07,14,03,17,10.20
2010,07,14,03,18,10.10
2010,07,14,03,19,10.10
2010,07,14,03,20,10.10
2010,07,14,03,21,10.10
2010,07,14,03,22,10.00
2010,07,14,03,23,10.00
2010,07,14,03,24,10.00
2010,07,14,03,25,10.10
2010,07,14,03,26,10.10
2010,07,14,03,27,10.10
2010,07,14,03,28,10.10
2010,07,14,03,29,10.10
2010,07,14,03,30,10.10
2010,07,14,03,31,10.10
2010,07,14,03,32,10.00
2010,07,14,03,33,10.00
2010,07,14,03,34,10.00
2010,07,14,03,35,10.00
2010,07,14,03,36,10.00
2010,07,14,03,37,10.00
2010,07,14,03,38,10.00
2010,07,14,03,39,9.90
2010,07,14,03,40,9.90
2010,07,14,03,41,9.90
2010,07,14,03,42,9.90
2010,07,14,03,43,9.90
2010,07,14,03,44,9.90
2010,07,14,03,45,9.90
2010,07,14,03,46,9.90
2010,07,14,03,47,9.90
2010,07,14,03,48,9.90
2010,07,14,03,49,9.90
2010,07,14,03,50,9.90
2010,07,14,03,51,9.90
2010,07,14,03,52,9.90
2010,07,14,03,53,9.90
2010,07,14,03,54,9.80
2010,07,14,03,55,9.80
2010,07,14,03,56,9.80
2010,07,14,03,57,9.80
2010,07,14,03,58,9.80
2010,07,14,03,59,9.80
2010,07,14,04,00,9.80
2010,07,14,04,01,9.80
2010,07,14,04,02,9.80
2010,07,14,04,03,9.80
2010,07,14,04,04,9.80
2010,07,14,04,05,9.80
2010,07,14,04,06,9.80
2010,07,14,04,07,9.80
2010,07,14,04,08,9.70
2010,07,14,04,09,9.70
2010,07,14,04,10,9.70
2010,07,14,04,11,9.70
2010,07,14,04,12,9.70
2010,07,14,04,13,9.70
2010,07,14,04,14,9.70
2010,07,14,04,15,9.70
2010,07,14,04,16,9.70
2010,07,14,04,17,9.70
2010,07,14,04,18,9.70
2010,07,14,04,19,9.70
2010,07,14,04,20,9.70
2010,07,14,04,21,9.70
2010,07,14,04,22,9.70
2010,07,14,04,23,9.70
2010,07,14,04,24,9.70
2010,07,14,04,25,9.70
2010,07,14,04,26,9.70
2010,07,14,04,27,9.70
2010,07,14,04,28,9.60
2010,07,14,04,29,9.60
2010,07,14,04,30,9.60
2010,07,14,04,31,9.60
2010,07,14,04,32,9.60
2010,07,14,04,33,9.60
2010,07,14,04,34,9.60
2010,07,14,04,35,9.60
2010,07,14,04,36,9.60
2010,07,14,04,37,9.60
2010,07,14,04,38,9.60
2010,07,14,04,39,9.60
2010,07,14,04,40,9.60
2010,07,14,04,41,9.60
2010,07,14,04,42,9.60
2010,07,14,04,43,9.60
2010,07,14,04,44,9.60
2010,07,14,04,45,9.60
2010,07,14,04,46,9.60
2010,07,14,04,47,9.60
2010,07,14,04,48,9.60
2010,07,14,04,49,9.60
2010,07,14,04,50,9.60
2010,07,14,04,51,9.60
2010,07,14,04,52,9.60
2010,07,14,04,53,9.60
2010,07,14,04,54,9.60
2010,07,14,04,55,9.60
2010,07,14,04,56,9.60
2010,07,14,04,57,9.60
2010,07,14,04,58,9.60
2010,07,14,04,59,9.60
2010,07,14,05,00,9.60
2010,07,14,05,01,9.60
2010,07,14,05,02,9.50
2010,07,14,05,03,9.50
2010,07,14,05,04,9.50
2010,07,14,05,05,9.50
2010,07,14,05,06,9.50
2010,07,14,05,07,9.50
2010,07,14,05,08,9.50
2010,07,14,05,09,9.50
2010,07,14,05,10,9.50
2010,07,14,05,11,9.40
2010,07,14,05,12,9.40
2010,07,14,05,13,9.40
2010,07,14,05,14,9.40
2010,07,14,05,15,9.40
2010,07,14,05,16,9.40
2010,07,14,05,17,9.40
2010,07,14,05,18,9.40
2010,07,14,05,19,9.40
2010,07,14,05,20,9.50
2010,07,14,05,21,9.50
2010,07,14,05,22,9.40
2010,07,14,05,23,9.40
2010,07,14,05,24,9.40
2010,07,14,05,25,9.50
2010,07,14,05,26,9.50
2010,07,14,05,27,9.50
2010,07,14,05,28,9.50
2010,07,14,05,29,9.50
2010,07,14,05,30,9.50
2010,07,14,05,31,9.50
2010,07,14,05,32,9.50
2010,07,14,05,33,9.50
2010,07,14,05,34,9.40
2010,07,14,05,35,9.40
2010,07,14,05,36,9.40
2010,07,14,05,37,9.40
2010,07,14,05,38,9.40
2010,07,14,05,39,9.40
2010,07,14,05,40,9.40
2010,07,14,05,41,9.40
2010,07,14,05,42,9.40
2010,07,14,05,43,9.40
2010,07,14,05,44,9.40
2010,07,14,05,45,9.40
2010,07,14,05,46,9.40
2010,07,14,05,47,9.30
2010,07,14,05,48,9.30
2010,07,14,05,49,9.30
2010,07,14,05,50,9.30
2010,07,14,05,51,9.40
2010,07,14,05,52,9.40
2010,07,14,05,53,9.40
2010,07,14,05,54,9.40
2010,07,14,05,55,9.40
2010,07,14,05,56,9.40
2010,07,14,05,57,9.40
2010,07,14,05,58,9.40
2010,07,14,05,59,9.40
2010,07,14,06,00,9.40
2010,07,14,06,01,9.40
2010,07,14,06,02,9.40
2010,07,14,06,03,9.40
2010,07,14,06,04,9.40
2010,07,14,06,05,9.40
2010,07,14,06,06,9.40
2010,07,14,06,07,9.40
2010,07,14,06,08,9.50
2010,07,14,06,09,9.50
2010,07,14,06,10,9.50
2010,07,14,06,11,9.60
2010,07,14,06,12,9.60
2010,07,14,06,13,9.60
2010,07,14,06,14,9.60
2010,07,14,06,15,9.60
2010,07,14,06,16,9.60
2010,07,14,06,17,9.60
2010,07,14,06,18,9.70
2010,07,14,06,19,9.70
2010,07,14,06,20,9.70
2010,07,14,06,21,9.70
2010,07,14,06,22,9.70
2010,07,14,06,23,9.70
2010,07,14,06,24,9.60
2010,07,14,06,25,9.60
2010,07,14,06,26,9.70
2010,07,14,06,27,9.60
2010,07,14,06,28,9.60
2010,07,14,06,29,9.60
2010,07,14,06,30,9.60
2010,07,14,06,31,9.60
2010,07,14,06,32,9.60
2010,07,14,06,33,9.60
2010,07,14,06,34,9.70
2010,07,14,06,35,9.70
2010,07,14,06,36,9.70
2010,07,14,06,37,9.70
2010,07,14,06,38,9.70
2010,07,14,06,39,9.70
2010,07,14,06,40,9.70
2010,07,14,06,41,9.70
2010,07,14,06,42,9.70
2010,07,14,06,43,9.80
2010,07,14,06,44,9.80
2010,07,14,06,45,9.80
2010,07,14,06,46,9.80
2010,07,14,06,47,9.80
2010,07,14,06,48,9.80
2010,07,14,06,49,9.80
2010,07,14,06,50,9.90
2010,07,14,06,51,9.90
2010,07,14,06,52,9.90
2010,07,14,06,53,9.90
2010,07,14,06,54,9.90
2010,07,14,06,55,9.90
2010,07,14,06,56,9.90
2010,07,14,06,57,9.90
2010,07,14,06,58,9.90
2010,07,14,06,59,9.90
2010,07,14,07,00,10.00
2010,07,14,07,01,10.00
2010,07,14,07,02,10.00
2010,07,14,07,03,10.00
2010,07,14,07,04,10.00
2010,07,14,07,05,10.00
2010,07,14,07,06,10.00
2010,07,14,07,07,10.00
2010,07,14,07,08,10.00
2010,07,14,07,09,10.10
2010,07,14,07,10,10.10
2010,07,14,07,11,10.10
2010,07,14,07,12,10.20
2010,07,14,07,13,10.20
2010,07,14,07,14,10.20
2010,07,14,07,15,10.20
2010,07,14,07,16,10.30
2010,07,14,07,17,10.30
2010,07,14,07,18,10.30
2010,07,14,07,19,10.40
2010,07,14,07,20,10.40
2010,07,14,07,21,10.40
2010,07,14,07,22,10.50
2010,07,14,07,23,10.60
2010,07,14,07,24,10.60
2010,07,14,07,25,10.70
2010,07,14,07,26,10.70
2010,07,14,07,27,10.80
2010,07,14,07,28,10.80
2010,07,14,07,29,10.90
2010,07,14,07,30,10.90
2010,07,14,07,31,11.00
2010,07,14,07,32,11.00
2010,07,14,07,33,11.10
2010,07,14,07,34,11.10
2010,07,14,07,35,11.20
2010,07,14,07,36,11.20
2010,07,14,07,37,11.30
2010,07,14,07,38,11.30
2010,07,14,07,39,11.40
2010,07,14,07,40,11.40
2010,07,14,07,41,11.40
2010,07,14,07,42,11.50
2010,07,14,07,43,11.60
2010,07,14,07,44,11.60
2010,07,14,07,45,11.60
2010,07,14,07,46,11.70
2010,07,14,07,47,11.80
2010,07,14,07,48,11.80
2010,07,14,07,49,11.80
2010,07,14,07,50,11.90
2010,07,14,07,51,12.00
2010,07,14,07,52,12.00
2010,07,14,07,53,12.10
2010,07,14,07,54,12.20
2010,07,14,07,55,12.30
2010,07,14,07,56,12.30
2010,07,14,07,57,12.40
2010,07,14,07,58,12.50
2010,07,14,07,59,12.60
2010,07,14,08,00,12.60
2010,07,14,08,01,12.70
2010,07,14,08,02,12.80
2010,07,14,08,03,12.80
2010,07,14,08,04,12.90
2010,07,14,08,05,13.00
2010,07,14,08,06,13.10
2010,07,14,08,07,13.20
2010,07,14,08,08,13.30
2010,07,14,08,09,13.30
2010,07,14,08,10,13.40
2010,07,14,08,11,13.50
2010,07,14,08,12,13.50
2010,07,14,08,13,13.60
2010,07,14,08,14,13.70
2010,07,14,08,15,13.70
2010,07,14,08,16,13.80
2010,07,14,08,17,13.90
2010,07,14,08,18,14.00
2010,07,14,08,19,14.10
2010,07,14,08,20,14.20
2010,07,14,08,21,14.30
2010,07,14,08,22,14.30
2010,07,14,08,23,14.40
2010,07,14,08,24,14.50
2010,07,14,08,25,14.50
2010,07,14,08,26,14.60
2010,07,14,08,27,14.60
2010,07,14,08,28,14.70
2010,07,14,08,29,14.70
2010,07,14,08,30,14.80
2010,07,14,08,31,14.80
2010,07,14,08,32,14.80
2010,07,14,08,33,14.90
2010,07,14,08,34,14.90
2010,07,14,08,35,15.00
2010,07,14,08,36,15.00
2010,07,14,08,37,15.00
2010,07,14,08,38,15.00
2010,07,14,08,39,15.10
2010,07,14,08,40,15.20
2010,07,14,08,41,15.30
2010,07,14,08,42,15.30
2010,07,14,08,43,15.30
2010,07,14,08,44,15.40
2010,07,14,08,45,15.50
2010,07,14,08,46,15.50
2010,07,14,08,47,15.60
2010,07,14,08,48,15.60
2010,07,14,08,49,15.60
2010,07,14,08,50,15.60
2010,07,14,08,51,15.70
2010,07,14,08,52,15.70
2010,07,14,08,53,15.70
2010,07,14,08,54,15.70
2010,07,14,08,55,15.70
2010,07,14,08,56,15.70
2010,07,14,08,57,15.80
2010,07,14,08,58,15.80
2010,07,14,08,59,15.80
2010,07,14,09,00,15.80
2010,07,14,09,01,15.90
2010,07,14,09,02,15.90
2010,07,14,09,03,15.90
2010,07,14,09,04,16.00
2010,07,14,09,05,16.00
2010,07,14,09,06,16.10
2010,07,14,09,07,16.10
2010,07,14,09,08,16.20
2010,07,14,09,09,16.30
2010,07,14,09,10,16.40
2010,07,14,09,11,16.50
2010,07,14,09,12,16.50
2010,07,14,09,13,16.60
2010,07,14,09,14,16.70
2010,07,14,09,15,16.70
2010,07,14,09,16,16.80
2010,07,14,09,17,16.80
2010,07,14,09,18,16.90
2010,07,14,09,19,16.90
2010,07,14,09,20,17.00
2010,07,14,09,21,17.00
2010,07,14,09,22,17.10
2010,07,14,09,23,17.10
2010,07,14,09,24,17.20
2010,07,14,09,25,17.30
2010,07,14,09,26,17.40
2010,07,14,09,27,17.40
2010,07,14,09,28,17.50
2010,07,14,09,29,17.60
2010,07,14,09,30,17.60
2010,07,14,09,31,17.60
2010,07,14,09,32,17.70
2010,07,14,09,33,17.80
2010,07,14,09,34,17.80
2010,07,14,09,35,17.80
2010,07,14,09,36,17.80
2010,07,14,09,37,17.90
2010,07,14,09,38,17.90
2010,07,14,09,39,17.90
2010,07,14,09,40,17.90
2010,07,14,09,41,17.80
2010,07,14,09,42,17.80
2010,07,14,09,43,17.80
2010,07,14,09,44,17.70
2010,07,14,09,45,17.80
2010,07,14,09,46,17.80
2010,07,14,09,47,17.80
2010,07,14,09,48,17.80
2010,07,14,09,49,17.80
2010,07,14,09,50,17.80
2010,07,14,09,51,17.90
2010,07,14,09,52,17.90
2010,07,14,09,53,17.90
2010,07,14,09,54,18.00
2010,07,14,09,55,18.00
2010,07,14,09,56,18.00
2010,07,14,09,57,18.00
2010,07,14,09,58,18.00
2010,07,14,09,59,18.00
2010,07,14,10,00,18.00
2010,07,14,10,01,18.00
2010,07,14,10,02,18.00
2010,07,14,10,03,18.00
2010,07,14,10,04,17.90
2010,07,14,10,05,18.00
2010,07,14,10,06,18.00
2010,07,14,10,07,18.10
2010,07,14,10,08,18.10
2010,07,14,10,09,18.10
2010,07,14,10,10,18.20
2010,07,14,10,11,18.20
2010,07,14,10,12,18.20
2010,07,14,10,13,18.30
2010,07,14,10,14,18.30
2010,07,14,10,15,18.40
2010,07,14,10,16,18.40
2010,07,14,10,17,18.40
2010,07,14,10,18,18.40
2010,07,14,10,19,18.40
2010,07,14,10,20,18.50
2010,07,14,10,21,18.60
2010,07,14,10,22,18.70
2010,07,14,10,23,18.80
2010,07,14,10,24,18.80
2010,07,14,10,25,18.80
2010,07,14,10,26,18.80
2010,07,14,10,27,18.90
2010,07,14,10,28,18.90
2010,07,14,10,29,18.80
2010,07,14,10,30,18.80
2010,07,14,10,31,18.70
2010,07,14,10,32,18.70
2010,07,14,10,33,18.70
2010,07,14,10,34,18.80
2010,07,14,10,35,18.80
2010,07,14,10,36,18.90
2010,07,14,10,37,19.00
2010,07,14,10,38,19.10
2010,07,14,10,39,19.20
2010,07,14,10,40,19.10
2010,07,14,10,41,19.10
2010,07,14,10,42,19.10
2010,07,14,10,43,19.10
2010,07,14,10,44,19.00
2010,07,14,10,45,19.00
2010,07,14,10,46,18.90
2010,07,14,10,47,18.90
2010,07,14,10,48,18.90
2010,07,14,10,49,18.80
2010,07,14,10,50,18.80
2010,07,14,10,51,18.90
2010,07,14,10,52,18.80
2010,07,14,10,53,18.80
2010,07,14,10,54,18.90
2010,07,14,10,55,18.90
2010,07,14,10,56,18.90
2010,07,14,10,57,18.90
2010,07,14,10,58,18.90
2010,07,14,10,59,19.00
2010,07,14,11,00,19.00
2010,07,14,11,01,19.10
2010,07,14,11,02,19.10
2010,07,14,11,03,19.20
2010,07,14,11,04,19.30
2010,07,14,11,05,19.30
2010,07,14,11,06,19.30
2010,07,14,11,07,19.30
2010,07,14,11,08,19.30
2010,07,14,11,09,19.20
2010,07,14,11,10,19.10
2010,07,14,11,11,18.90
2010,07,14,11,12,18.80
2010,07,14,11,13,18.80
2010,07,14,11,14,18.70
2010,07,14,11,15,18.70
2010,07,14,11,16,18.70
2010,07,14,11,17,18.80
2010,07,14,11,18,18.80
2010,07,14,11,19,18.90
2010,07,14,11,20,18.90
2010,07,14,11,21,18.90
2010,07,14,11,22,18.90
2010,07,14,11,23,19.00
2010,07,14,11,24,19.00
2010,07,14,11,25,19.10
2010,07,14,11,26,19.10
2010,07,14,11,27,19.20
2010,07,14,11,28,19.30
2010,07,14,11,29,19.30
2010,07,14,11,30,19.40
2010,07,14,11,31,19.50
2010,07,14,11,32,19.50
2010,07,14,11,33,19.40
2010,07,14,11,34,19.40
2010,07,14,11,35,19.40
2010,07,14,11,36,19.50
2010,07,14,11,37,19.60
2010,07,14,11,38,19.60
2010,07,14,11,39,19.60
2010,07,14,11,40,19.50
2010,07,14,11,41,19.40
2010,07,14,11,42,19.40
2010,07,14,11,43,19.50
2010,07,14,11,44,19.50
2010,07,14,11,45,19.50
2010,07,14,11,46,19.50
2010,07,14,11,47,19.50
2010,07,14,11,48,19.50
2010,07,14,11,49,19.50
2010,07,14,11,50,19.60
2010,07,14,11,51,19.60
2010,07,14,11,52,19.50
2010,07,14,11,53,19.50
2010,07,14,11,54,19.40
2010,07,14,11,55,19.40
2010,07,14,11,56,19.30
2010,07,14,11,57,19.30
2010,07,14,11,58,19.30
2010,07,14,11,59,19.30
2010,07,14,12,00,19.20
2010,07,14,12,01,19.20
2010,07,14,12,02,19.20
2010,07,14,12,03,19.10
2010,07,14,12,04,19.10
2010,07,14,12,05,19.10
2010,07,14,12,12,19.70
2010,07,14,12,13,19.70
2010,07,14,12,14,19.70
2010,07,14,12,15,19.60
2010,07,14,12,16,19.50
2010,07,14,12,17,19.50
2010,07,14,12,18,19.60
2010,07,14,12,19,19.60
2010,07,14,12,20,19.70
2010,07,14,12,21,19.70
2010,07,14,12,22,19.80
2010,07,14,12,23,19.80
2010,07,14,12,24,19.80
2010,07,14,12,25,19.80
2010,07,14,12,26,19.80
2010,07,14,12,27,19.80
2010,07,14,12,28,19.90
2010,07,14,12,29,19.90
2010,07,14,12,30,20.00
2010,07,14,12,31,20.00
2010,07,14,12,32,20.00
2010,07,14,12,33,20.10
2010,07,14,12,34,20.20
2010,07,14,12,35,20.30
2010,07,14,12,36,20.40
2010,07,14,12,37,20.40
2010,07,14,12,38,20.50
2010,07,14,12,39,20.60
2010,07,14,12,40,20.60
2010,07,14,12,41,20.60
2010,07,14,12,42,20.70
2010,07,14,12,43,20.70
2010,07,14,12,44,20.70
2010,07,14,12,45,20.70
2010,07,14,12,46,20.80
2010,07,14,12,47,20.80
2010,07,14,12,48,20.80
2010,07,14,12,49,20.80
2010,07,14,12,50,20.70
2010,07,14,12,51,20.70
2010,07,14,12,52,20.60
2010,07,14,12,53,20.60
2010,07,14,12,54,20.60
2010,07,14,12,55,20.70
2010,07,14,12,56,20.60
2010,07,14,12,57,20.60
2010,07,14,12,58,20.60
2010,07,14,12,59,20.70
2010,07,14,13,00,20.70
2010,07,14,13,01,20.80
2010,07,14,13,02,20.80
2010,07,14,13,03,20.80
2010,07,14,13,04,20.80
2010,07,14,13,05,20.80
2010,07,14,13,06,20.90
2010,07,14,13,07,21.00
2010,07,14,13,08,21.10
2010,07,14,13,09,21.20
2010,07,14,13,10,21.20
2010,07,14,13,11,21.20
2010,07,14,13,12,21.20
2010,07,14,13,13,21.20
2010,07,14,13,14,21.30
2010,07,14,13,15,21.30
2010,07,14,13,16,21.30
2010,07,14,13,17,21.30
2010,07,14,13,18,21.20
2010,07,14,13,19,21.10
2010,07,14,13,20,21.10
2010,07,14,13,21,21.00
2010,07,14,13,22,21.00
2010,07,14,13,23,20.90
2010,07,14,13,24,20.90
2010,07,14,13,25,21.00
2010,07,14,13,26,21.00
2010,07,14,13,27,21.00
2010,07,14,13,28,20.90
2010,07,14,13,29,20.90
2010,07,14,13,30,20.90
2010,07,14,13,31,20.80
2010,07,14,13,32,20.80
2010,07,14,13,33,20.70
2010,07,14,13,34,20.60
2010,07,14,13,35,20.50
2010,07,14,13,36,20.40
2010,07,14,13,37,20.40
2010,07,14,13,38,20.40
2010,07,14,13,39,20.40
2010,07,14,13,40,20.50
2010,07,14,13,41,20.50
2010,07,14,13,42,20.50
2010,07,14,13,43,20.50
2010,07,14,13,44,20.50
2010,07,14,13,45,20.50
2010,07,14,13,46,20.50
2010,07,14,13,47,20.60
2010,07,14,13,48,20.70
2010,07,14,13,49,20.70
2010,07,14,13,50,20.70
2010,07,14,13,51,20.80
2010,07,14,13,52,20.80
2010,07,14,13,53,20.80
2010,07,14,13,54,20.80
2010,07,14,13,55,20.80
2010,07,14,13,56,20.80
2010,07,14,13,57,20.70
2010,07,14,13,58,20.70
2010,07,14,13,59,20.60
2010,07,14,14,00,20.60
2010,07,14,14,01,20.60
2010,07,14,14,02,20.60
2010,07,14,14,03,20.50
2010,07,14,14,04,20.40
2010,07,14,14,05,20.40
2010,07,14,14,06,20.40
2010,07,14,14,07,20.30
2010,07,14,14,08,20.30
2010,07,14,14,09,20.30
2010,07,14,14,10,20.30
2010,07,14,14,11,20.30
2010,07,14,14,12,20.20
2010,07,14,14,13,20.20
2010,07,14,14,14,20.30
2010,07,14,14,15,20.30
2010,07,14,14,16,20.30
2010,07,14,14,17,20.30
2010,07,14,14,18,20.40
2010,07,14,14,19,20.40
2010,07,14,14,20,20.40
2010,07,14,14,21,20.50
2010,07,14,14,22,20.50
2010,07,14,14,23,20.50
2010,07,14,14,24,20.60
2010,07,14,14,25,20.70
2010,07,14,14,26,20.70
2010,07,14,14,27,20.80
2010,07,14,14,28,20.80
2010,07,14,14,29,20.80
2010,07,14,14,30,20.80
2010,07,14,14,31,20.80
2010,07,14,14,32,20.80
2010,07,14,14,33,20.80
2010,07,14,14,34,20.70
2010,07,14,14,35,20.70
2010,07,14,14,36,20.70
2010,07,14,14,37,20.70
2010,07,14,14,38,20.70
2010,07,14,14,39,20.80
2010,07,14,14,40,20.80
2010,07,14,14,41,20.80
2010,07,14,14,42,20.80
2010,07,14,14,43,20.80
2010,07,14,14,44,20.90
2010,07,14,14,45,20.90
2010,07,14,14,46,21.00
2010,07,14,14,47,21.00
2010,07,14,14,48,21.10
2010,07,14,14,49,21.10
2010,07,14,14,50,21.10
2010,07,14,14,51,21.10
2010,07,14,14,52,21.10
2010,07,14,14,53,21.00
2010,07,14,14,54,21.10
2010,07,14,14,55,21.10
2010,07,14,14,56,21.10
2010,07,14,14,57,21.20
2010,07,14,14,58,21.30
2010,07,14,14,59,21.40
2010,07,14,15,00,21.40
2010,07,14,15,01,21.40
2010,07,14,15,02,21.30
2010,07,14,15,03,21.30
2010,07,14,15,04,21.30
2010,07,14,15,05,21.30
2010,07,14,15,06,21.30
2010,07,14,15,07,21.40
2010,07,14,15,08,21.40
2010,07,14,15,09,21.50
2010,07,14,15,10,21.50
2010,07,14,15,11,21.60
2010,07,14,15,12,21.70
2010,07,14,15,13,21.80
2010,07,14,15,14,21.80
2010,07,14,15,15,21.80
2010,07,14,15,16,21.90
2010,07,14,15,17,21.90
2010,07,14,15,18,21.90
2010,07,14,15,19,22.00
2010,07,14,15,20,22.10
2010,07,14,15,21,22.20
2010,07,14,15,22,22.20
2010,07,14,15,23,22.30
2010,07,14,15,24,22.40
2010,07,14,15,25,22.60
2010,07,14,15,26,22.70
2010,07,14,15,27,22.80
2010,07,14,15,28,22.80
2010,07,14,15,29,22.90
2010,07,14,15,30,23.00
2010,07,14,15,31,23.10
2010,07,14,15,32,23.10
2010,07,14,15,33,23.10
2010,07,14,15,34,23.20
2010,07,14,15,35,23.20
2010,07,14,15,36,23.20
2010,07,14,15,37,23.30
2010,07,14,15,38,23.30
2010,07,14,15,39,23.40
2010,07,14,15,40,23.50
2010,07,14,15,41,23.60
2010,07,14,15,42,23.60
2010,07,14,15,43,23.70
2010,07,14,15,44,23.70
2010,07,14,15,45,23.80
2010,07,14,15,46,23.90
2010,07,14,15,47,23.90
2010,07,14,15,48,23.90
2010,07,14,15,49,23.90
2010,07,14,15,50,23.90
2010,07,14,15,51,23.90
2010,07,14,15,52,24.00
2010,07,14,15,53,24.10
2010,07,14,15,54,24.20
2010,07,14,15,55,24.30
2010,07,14,15,56,24.30
2010,07,14,15,57,24.30
2010,07,14,15,58,24.20
2010,07,14,15,59,24.20
2010,07,14,16,00,24.20
2010,07,14,16,01,24.00
2010,07,14,16,02,23.90
2010,07,14,16,03,23.80
2010,07,14,16,04,23.70
2010,07,14,16,05,23.70
2010,07,14,16,06,23.60
2010,07,14,16,07,23.60
2010,07,14,16,08,23.50
2010,07,14,16,09,23.50
2010,07,14,16,10,23.60
2010,07,14,16,11,23.60
2010,07,14,16,12,23.50
2010,07,14,16,13,23.50
2010,07,14,16,14,23.50
2010,07,14,16,15,23.50
2010,07,14,16,16,23.50
2010,07,14,16,17,23.50
2010,07,14,16,18,23.50
2010,07,14,16,19,23.50
2010,07,14,16,20,23.50
2010,07,14,16,21,23.40
2010,07,14,16,22,23.40
2010,07,14,16,23,23.40
2010,07,14,16,24,23.40
2010,07,14,16,25,23.40
2010,07,14,16,26,23.40
2010,07,14,16,27,23.40
2010,07,14,16,28,23.40
2010,07,14,16,29,23.40
2010,07,14,16,30,23.50
2010,07,14,16,31,23.60
2010,07,14,16,32,23.60
2010,07,14,16,33,23.70
2010,07,14,16,34,23.70
2010,07,14,16,35,23.80
2010,07,14,16,36,23.80
2010,07,14,16,37,23.80
2010,07,14,16,38,23.80
2010,07,14,16,39,23.80
2010,07,14,16,40,23.80
2010,07,14,16,41,23.80
2010,07,14,16,42,23.80
2010,07,14,16,43,23.80
2010,07,14,16,44,23.80
2010,07,14,16,45,23.80
2010,07,14,16,46,23.80
2010,07,14,16,47,23.80
2010,07,14,16,48,23.80
2010,07,14,16,49,23.80
2010,07,14,16,50,23.80
2010,07,14,16,51,23.90
2010,07,14,16,52,23.90
2010,07,14,16,53,24.00
2010,07,14,16,54,24.00
2010,07,14,16,55,24.00
2010,07,14,16,56,23.90
2010,07,14,16,57,23.90
2010,07,14,16,58,23.90
2010,07,14,16,59,23.90
2010,07,14,17,00,23.90
2010,07,14,17,01,23.80
2010,07,14,17,02,23.80
2010,07,14,17,03,23.90
2010,07,14,17,04,24.00
2010,07,14,17,05,24.00
2010,07,14,17,06,24.20
2010,07,14,17,07,24.20
2010,07,14,17,08,24.30
2010,07,14,17,09,24.50
2010,07,14,17,10,24.60
2010,07,14,17,11,24.70
2010,07,14,17,12,24.80
2010,07,14,17,13,25.00
2010,07,14,17,14,25.10
2010,07,14,17,15,25.20
2010,07,14,17,16,25.30
2010,07,14,17,17,25.30
2010,07,14,17,18,25.30
2010,07,14,17,19,25.20
2010,07,14,17,20,25.10
2010,07,14,17,21,25.00
2010,07,14,17,22,24.90
2010,07,14,17,23,24.80
2010,07,14,17,24,24.70
2010,07,14,17,25,24.60
2010,07,14,17,26,24.50
2010,07,14,17,27,24.50
2010,07,14,17,28,24.40
2010,07,14,17,29,24.40
2010,07,14,17,30,24.30
2010,07,14,17,31,24.30
2010,07,14,17,32,24.40
2010,07,14,17,33,24.40
2010,07,14,17,34,24.40